DW9433 Weather Reports


Display with metric or nautical units.
time (UTC)temp
F
wind
direction
speed
MPH
gust
MPH
rain 1hr
in
rain 24hr
in
rain mn
in
humidity
%
barometer
mb
20260505024528 71 157 0.0 0.0 0.00 0.00 0.00 55 1009.5
20260505023027 71 185 0.0 3.0 0.00 0.00 0.00 53 1009.4
20260505021528 72 218 0.0 0.0 0.00 0.00 0.00 52 1009.2
20260505020026 72 199 0.0 0.0 0.00 0.00 0.00 52 1009.0
20260505014528 73 154 0.0 0.0 0.00 0.00 0.00 51 1009.0
20260505013025 73 211 0.0 1.0 0.00 0.00 0.00 50 1009.0
20260505011525 73 181 0.0 4.0 0.00 0.00 0.00 50 1009.0
20260505010024 74 226 0.0 2.0 0.00 0.00 0.00 49 1008.9
20260505004537 75 207 0.0 4.0 0.00 0.00 0.00 48 1008.6
20260505003023 75 132 0.0 4.0 0.00 0.00 0.00 47 1008.7
20260505001522 76 146 0.0 4.0 0.00 0.00 0.00 46 1008.6
20260505000023 77 191 0.0 4.0 0.00 0.00 0.00 43 1008.6
20260504234528 77 201 0.0 5.0 0.00 0.00 0.00 43 1008.8
20260504233020 78 181 0.0 5.0 0.00 0.00 0.00 42 1008.8
20260504231532 78 182 0.0 2.0 0.00 0.00 0.00 43 1008.8
20260504230018 78 152 0.0 5.0 0.00 0.00 0.00 41 1008.9
20260504224517 79 281 0.0 4.0 0.00 0.00 0.00 39 1008.9
20260504223018 79 180 0.0 5.0 0.00 0.00 0.00 41 1008.9
20260504221516 80 224 0.0 8.0 0.00 0.00 0.00 41 1008.9
20260504220016 80 210 0.0 6.0 0.00 0.00 0.00 39 1009.0
20260504214518 81 174 0.0 7.0 0.00 0.00 0.00 39 1008.9
20260504213015 81 175 0.0 4.0 0.00 0.00 0.00 41 1008.9
20260504211514 81 161 0.0 11.0 0.00 0.00 0.00 40 1009.1
20260504210014 81 158 0.0 4.0 0.00 0.00 0.00 39 1009.2
20260504204515 81 128 1.0 6.0 0.00 0.00 0.00 40 1009.4
20260504203012 81 198 0.0 9.0 0.00 0.00 0.00 40 1009.6
20260504201507 81 200 0.0 8.0 0.00 0.00 0.00 41 1009.8
20260504200009 82 226 0.0 8.0 0.00 0.00 0.00 40 1010.2
20260504194508 81 145 3.0 9.0 0.00 0.00 0.00 39 1010.3
20260504193005 82 159 1.0 4.0 0.00 0.00 0.00 39 1010.8
20260504191600 81 198 0.0 6.0 0.00 0.00 0.00 40 1010.8
20260504184604 81 198 0.0 7.0 0.00 0.00 0.00 42 1011.0
20260504183059 81 189 2.0 11.0 0.00 0.00 0.00 41 1011.2
20260504181551 80 183 2.0 10.0 0.00 0.00 0.00 43 1011.4
20260504180049 80 153 0.0 5.0 0.00 0.00 0.00 43 1011.8
20260504174550 80 168 0.0 8.0 0.00 0.00 0.00 45 1011.8
20260504173046 80 313 0.0 6.0 0.00 0.00 0.00 44 1012.0
20260504171546 79 274 0.0 6.0 0.00 0.00 0.00 45 1012.2
20260504081534 62 201 0.0 0.0 0.00 0.00 0.00 68 1013.3
20260504050008 60 195 0.0 0.0 0.00 0.00 0.00 66 1014.8
20260504044514 61 195 0.0 0.0 0.00 0.00 0.00 65 1014.8
20260504043015 60 195 0.0 0.0 0.00 0.00 0.00 65 1014.8
20260504041507 60 195 0.0 0.0 0.00 0.00 0.00 66 1014.8
20260504040008 59 195 0.0 0.0 0.00 0.00 0.00 68 1014.8
20260504034507 59 195 0.0 0.0 0.00 0.00 0.00 70 1014.9
20260504033007 59 195 0.0 0.0 0.00 0.00 0.00 70 1015.0
20260504031505 59 195 0.0 0.0 0.00 0.00 0.00 69 1015.2
20260504030005 60 195 0.0 0.0 0.00 0.00 0.00 67 1015.2